Location: Wallasey
(53.4265°N, 3.0662°W)
Time: 13:33:44
(UTC+01:00)

NOAA 18 - Pass Details

Date: 23 September 2019
Orbit: 841 x 861 km, 99.1° (Epoch: 16 October)

Event Time Altitude Azimuth Distance (km) Brightness Sun altitude
Exits shadow 22:43:31 12° 227° (SW) 2,340 7.5 -29.3°
Maximum altitude 22:47:03 21° 271° (W) 1,844 7.3 -29.7°
Drops below altitude 10° 22:51:12 10° 319° (NW) 2,511 8.6 -30.1°
Sets 22:54:13 0° 336° (NNW) 3,454 9.5 -30.4°
